User: anonymous   Login
Location: Caltech
(34.1382°N, 118.1253°W)
Time: 07:31:43
(UTC-08:00)
Language:

Iridium 65 - Orbit

View from above orbital plane
View from above orbital plane
View from above satellite
View from above satellite

Ground track
Ground track

The orbit data is extracted from the following two-line orbital elements,

1 25288U 98021D   18015.81728229 +.00000138 +00000-0 +42315-4 0  9990
2 25288 086.3987 135.0251 0002040 093.3718 266.7712 14.34214169035219
Epoch (UTC): 15 January 2018 19:36:53
Eccentricity: 0.0002040
inclination: 86.3987°
perigee height: 776 km
apogee height: 779 km
right ascension of ascending node: 135.0251°
argument of perigee: 93.3718°
revolutions per day: 14.34214169
mean anomaly at epoch: 266.7712°
orbit number at epoch: 3521

The dashed part of the orbit path shows where the satellite is in the earth's shadow,  

DLR